User: anonymous   Login
Location: Observatorio Las Palmas
(29.0667°N, 110.9333°W)
Time: 17:12:33
(UTC-07:00)
Language:

Skynet4D Del rocket - Orbit

View from above orbital plane
View from above orbital plane
View from above satellite
View from above satellite

Ground track
Ground track

The orbit data is extracted from the following two-line orbital elements,

1 25135U 98002B   17289.29421442 +.00000131 +00000-0 +13801-4 0  9992
2 25135 026.8854 235.0389 0356186 315.3400 206.6316 13.62354023984741
Epoch (UTC): 16 October 2017 07:03:40
Eccentricity: 0.0356186
inclination: 26.8854°
perigee height: 763 km
apogee height: 1291 km
right ascension of ascending node: 235.0389°
argument of perigee: 315.3400°
revolutions per day: 13.62354023
mean anomaly at epoch: 206.6316°
orbit number at epoch: 98474

The dashed part of the orbit path shows where the satellite is in the earth's shadow,  

DLR